This demonstration page uses our WeatherBlox Daily Observations layout. Learn more.

Left ArrowRight Arrow

Hourly Observations for January 18, 2020

Temp ( °F °C ) Dew Point ( °F °C ) Humidity (%) Winds ( mph kmh ) Pressure ( in mb ) Visibility ( mi km ) Precip ( " mm )
12:18 am 00:18 Cloudy 33 0.6 28 -2.2 82 82 NNW 33 54 29.92 1013 10 16 0.00 0.00
12:29 am 00:29 Cloudy 31 -0.6 26 -3.3 82 82 NNW 30 48 29.95 1014 10 16 0.00 0.00
12:53 am 00:53 Cloudy 28 -2.2 23 -5 81 81 NW 36 57 29.97 1015 10 16 0.00 0.00
1:28 am 01:28 Cloudy 23 -5 17 -8.3 78 78 NNW 28 44 30.07 1018 10 16 0.00 0.00
1:53 am 01:53 Cloudy 22 -5.6 16 -8.9 78 78 NW 32 52 30.04 1017 10 16 0.00 0.00
2:19 am 02:19 Partly Cloudy 21 -6 12 -11 68 68 NNW 28 44 30.11 1020 10 16 0.00 0.00
2:53 am 02:53 Mostly Clear 19 -7.2 10 -12.2 68 68 NNW 25 41 30.09 1019 10 16 0.00 0.00
3:53 am 03:53 Mostly Clear 17 -8.3 10 -12.2 74 74 NW 18 30 30.16 1021 10 16 0.00 0.00
4:53 am 04:53 Clear 18 -7.8 10 -12.2 71 71 NW 18 30 30.19 1022 10 16 0.00 0.00
5:53 am 05:53 Clear 19 -7.2 9 -12.8 65 65 NW 21 33 30.22 1023 10 16 0.00 0.00
6:53 am 06:53 Clear 19 -7.2 9 -12.8 65 65 NW 25 41 30.26 1025 10 16 0.00 0.00
7:53 am 07:53 Clear 18 -7.8 8 -13.3 65 65 NNW 21 33 30.30 1026 10 16 0.00 0.00
8:53 am 08:53 Sunny 18 -7.8 8 -13.3 65 65 NW 18 30 30.34 1027 10 16 0.00 0.00
9:53 am 09:53 Sunny 22 -5.6 11 -11.7 63 63 NW 16 26 30.37 1028 10 16 0.00 0.00
10:53 am 10:53 Sunny 26 -3.3 14 -10 60 60 NW 17 28 30.38 1029 10 16 0.00 0.00
11:53 am 11:53 Sunny 29 -1.7 16 -8.9 58 58 NW 21 33 30.37 1028 10 16 0.00 0.00
12:53 pm 12:53 Sunny 31 -0.6 16 -8.9 54 54 NW 23 37 30.37 1029 10 16 0.00 0.00
1:53 pm 13:53 Sunny 32 0 18 -7.8 56 56 NW 18 30 30.37 1029 10 16 0.00 0.00
2:53 pm 14:53 Sunny 34 1.1 19 -7.2 54 54 WNW 17 28 30.39 1029 10 16 0.00 0.00
3:53 pm 15:53 Sunny 34 1.1 19 -7.2 54 54 WNW 14 22 30.40 1030 10 16 0.00 0.00
4:53 pm 16:53 Sunny 32 0 20 -6.7 61 61 WNW 8 13 30.40 1030 10 16 0.00 0.00
5:53 pm 17:53 Clear 30 -1.1 19 -7.2 64 64 W 7 11 30.41 1030 10 16 0.00 0.00
6:53 pm 18:53 Clear 26 -3.3 18 -7.8 71 71 WNW 8 13 30.43 1030 10 16 0.00 0.00
7:53 pm 19:53 Clear 27 -2.8 18 -7.8 69 69 W 8 13 30.44 1031 10 16 0.00 0.00
8:53 pm 20:53 Clear 24 -4.4 17 -8.3 75 75 W 6 9 30.46 1032 10 16 0.00 0.00
9:53 pm 21:53 Clear 23 -5 15 -9.4 72 72 WNW 9 15 30.47 1032 10 16 0.00 0.00
10:53 pm 22:53 Clear 25 -3.9 13 -10.6 60 60 W 9 15 30.47 1032 10 16 0.00 0.00
11:53 pm 23:53 Clear 24 -4.4 13 -10.6 62 62 WNW 8 13 30.48 1032 10 16 0.00 0.00

Powered by AerisWeather